Orbital elements:
2010 JV34                                           PHA, Earth MOID = 0.0383 AU
Epoch 2010 July 23.0 TT = JDT 2455400.5                 MPC
M   4.94682              (2000.0)            P               Q
n   0.43511747     Peri.   86.82154     +0.66815756     +0.73860838
a   1.7247720      Node   225.53885     -0.72271790     +0.61570568
e   0.5447000      Incl.    7.20958     -0.17676058     +0.27452535
P   2.27           H   20.7           G   0.15           U   8
Residuals in seconds of arc
100508 G96  0.3-  0.1-    100508 B33  0.1+  0.4-    100509 H01  0.0   0.1+
100508 G96  0.2-  0.2-    100508 B33  0.0   0.4-    100509 H47  0.4-  0.2+
100508 G96  0.0   0.1-    100508 B33  0.0   0.4-    100509 H01  0.0   0.0
100508 G96  0.4-  0.2-    100508 J65  0.1+  0.4+    100509 H47  0.1+  0.2+
100508 H01  0.0   0.1+    100508 J65  0.4+  0.3+    100509 H47  0.5-  0.1+
100508 H01  0.0   0.1+    100508 J65  0.1-  0.5-    100509 H47  0.2+  0.1-
100508 H01  0.2+  0.0     100508 J65  0.1+  0.0     100509 H47  0.2+  0.3-
100508 H01  0.2+  0.1-    100508 J65  0.0   0.2+    100509 H47  0.2-  0.2-
100508 H06  0.3+  0.1-    100508 J65  0.2+  0.2+    100509 H21  0.2-  0.2-
100508 H06  0.6+  0.2+    100508 J65  0.1-  0.1-    100509 H21  0.2-  0.2-
100508 474  0.0   0.0     100508 J65  0.2+  0.1-    100509 H21  0.0   0.1-
100508 474  0.1+  0.1-    100508 J65  0.1+  0.1+    100509 H21  0.0   0.1-
100508 474  0.1-  0.1+    100508 I19  0.1-  0.3-    100509 H21  0.1-  0.1-
100508 900  0.0   0.3+    100508 I19  0.0   0.1-    100509 H21  0.0   0.2-
100508 900  0.1-  0.1-    100508 I19  0.2+  0.0     100509 474  0.1+  0.2-
100508 300  0.1+  0.0     100509 H26  0.3-  0.1+    100509 474  0.0   0.2-
100508 300  0.6+  0.4+    100509 H26  0.0   0.2+    100509 474  0.0   0.2-
100508 300  0.4-  0.3+    100509 H26  0.1+  0.3-    100509 D96  0.1+  0.4+
100508 300  0.3+  0.3-    100509 854  0.2+  0.3+    100509 D96  0.1+  0.7-
100508 300  0.2-  0.3-    100509 854  0.1+  0.0     100509 E23  0.0   0.2+
100508 114  0.2-  0.3+    100509 854  0.2-  0.4+    100509 E23 (0.2-  3.0+)
100508 114  0.5-  0.4+    100509 H01  0.0   0.0     100509 E23  0.6+  1.1-
100508 114  0.4-  0.4+    100509 H01  0.0   0.1-    100509 E23  0.3-  0.1-
100508 114  0.4-  0.3+    100509 H47  0.4+  0.6-    100509 D96  0.1+  1.1-
100508 114  0.3-  0.3+    100509 H47  0.1+  0.3-    100509 D96  0.1-  0.6+

Ephemeris:
2010 JV34                a,e,i = 1.72, 0.54, 7                   q = 0.7853
Date    TT    R. A. (2000) Decl.     Delta      r     Elong.  Phase     V
2010 05 04    15 00.69   -18 24.4    0.187    1.194   175.1     4.1    17.8
2010 05 06    15 00.24   -17 05.0    0.169    1.177   177.7     2.0    17.4
2010 05 08    14 59.66   -15 26.8    0.151    1.160   178.5     1.3    17.1
2010 05 10    14 58.93   -13 23.4    0.134    1.143   175.5     4.0    17.0
2010 05 12    14 58.02   -10 45.4    0.117    1.127   171.7     7.4    16.8
2010 05 14    14 56.88   -07 17.7    0.101    1.110   167.2    11.6    16.7
2010 05 16    14 55.44   -02 36.4    0.0861   1.093   161.5    17.0    16.5
2010 05 18    14 53.54   +03 58.7    0.0717   1.076   154.1    24.2    16.3
2010 05 20    14 50.83   +13 33.6    0.0588   1.060   143.9    34.2    16.1
2010 05 22    14 46.54   +27 42.5    0.0485   1.044   129.3    48.6    16.0
2010 05 24    14 38.26   +47 23.4    0.0424   1.027   109.4    68.4    16.3
2010 05 26    14 14.26   +69 49.2    0.0425   1.011    86.8    90.8    17.1
2010 05 28    09 07.31   +86 21.3    0.0485   0.996    67.5   109.9    18.3
2010 05 30    03 52.03   +75 38.4    0.0588   0.980    54.1   123.1    19.6
2010 06 01    03 28.09   +66 14.6    0.0716   0.965    45.5   131.4    20.8

2010 06 03    03 20.33   +59 40.1    0.0858   0.950    40.2   136.5    21.7
2010 06 13    03 14.78   +44 30.9    0.166    0.882    33.9   140.0    23.4
2010 06 23    03 22.17   +38 37.8    0.256    0.829    37.8   131.3    23.2
2010 07 03    03 36.71   +35 20.5    0.354    0.795    42.9   119.4    22.7
2010 07 13    03 57.00   +33 12.4    0.455    0.786    47.6   107.0    22.5
2010 07 23    04 21.09   +31 38.9    0.555    0.802    51.8    95.2    22.3
2010 08 02    04 46.95   +30 20.6    0.646    0.842    55.7    84.9    22.4
2010 08 12    05 12.66   +29 06.3    0.725    0.900    59.6    76.4    22.4
2010 08 22    05 36.74   +27 50.3    0.787    0.971    63.9    69.4    22.6
2010 09 01    05 58.31   +26 30.8    0.832    1.050    68.7    63.7    22.7
2010 09 11    06 16.75   +25 08.2    0.860    1.133    74.2    58.8    22.8
2010 09 21    06 31.53   +23 43.9    0.873    1.218    80.6    54.4    22.8
2010 10 01    06 42.25   +22 19.4    0.872    1.302    87.8    50.2    22.8
2010 10 11    06 48.36   +20 56.6    0.860    1.386    96.1    45.7    22.8
2010 10 21    06 49.27   +19 36.9    0.842    1.468   105.7    40.8    22.8
2010 10 31    06 44.49   +18 21.6    0.822    1.547   116.6    35.0    22.7

Carl W. Hergenrother         (C) Copyright 2010 MPC           M.P.E.C. 2010-J57

Read MPEC 2010-J56 Read MPEC 2010-J58


MPEC number:

Enter an MPEC number in one of the following forms:

  • 1997-B01 (the full form)
  • J97B01 (the packed version of the full form)
  • B01 (the abbreviated form)

